Regional Weather Roundup
Issued by NWS

Home | Current Version | Previous Version | Graphics & Text | Print | Product List | Glossary On
Versions: 1 2 3 4 5 6 7 8 9 10 11 12 13 14 15 16 17 18 19 20 21 22 23 24 25 26 27 28 29 30 31 32 33 34 35 36 37 38 39 40 41 42 43 44 45 46 47 48 49 50
000
ASUS44 KMEG 212310
RWRTN
TENNESSEE HOURLY STATE WEATHER ROUNDUP
NATIONAL WEATHER SERVICE MEMPHIS TN
600 PM CDT FRI JUL 21 2017

TNZ002-004-019-021-049-052-054-088>092-220000-
WEST TENNESSEE

CITY           SKY/WX    TMP DP  RH WIND       PRES   REMARKS
MEMPHIS INTL   FAIR      95  73  48 SW8       29.95F HX 104
NWS MEMPHIS      N/A     97 N/A N/A MISG        N/A
JACKSON        FAIR      95  73  48 W5        29.95F HX 104
SOMERVILLE       N/A     95  75  52 CALM      29.95S HX 107
COVINGTON      SUNNY     93  75  55 SW5       29.94F HX 104
UNION CITY     SUNNY     93  79  62 SW3       29.93F HX 110
BOLIVAR        SUNNY     95  66  38 SW6       29.95S HX  98
PARIS          SUNNY     91  77  62 SW5       29.95F HX 105
HUNTINGDON     SUNNY     93  75  55 SW5       29.95S HX 104
LEXINGTON      SUNNY     93  75  55 CALM      29.96S HX 104
SELMER         SUNNY     93  72  49 SW5       29.97R HX 100
SAVANNAH       SUNNY     93  73  52 CALM      29.95F HX 102
$$

TNZ008-025-027-028-033-062-065-066-220000-
NORTH MIDDLE TENNESSEE

CITY           SKY/WX    TMP DP  RH WIND       PRES   REMARKS
NASHVILLE      PTSUNNY   94  70  45 SW3       29.97F HX 100
PORTLAND       SUNNY     91  75  59 CALM      29.97S HX 102
CLARKSVILLE    FAIR      92  74  55 W5        29.96F HX 101
SMYRNA         FAIR      96  73  47 VRB3      29.98S HX 105
COOKEVILLE     SUNNY     90  73  58 CALM      30.00S HX  98
GALLATIN       MOSUNNY   91  73  55 N5        29.99S HX 100
CROSSVILLE     FAIR      87  71  58 W6        30.06F HX  93
$$

TNZ061-075-076-078-094-096-097-220000-
SOUTH MIDDLE TENNESSEE

CITY           SKY/WX    TMP DP  RH WIND       PRES   REMARKS
FAYETTEVILLE   SUNNY     91  72  52 CALM      29.99F HX  98
TULLAHOMA      SUNNY     91  68  46 NW3       30.02S HX  95
WINCHESTER     MOSUNNY   91  73  55 NW5       30.00F HX 100
MCMINNVILLE    SUNNY     91  73  55 W3        30.01F HX 100
COLUMBIA       SUNNY     93  72  49 CALM      29.96S HX 100
SHELBYVILLE    MOSUNNY   90  73  58 CALM      29.99S HX  98
$$

TNZ017-018-042-046-047-220000-
NORTHEAST TENNESSEE

CITY           SKY/WX    TMP DP  RH WIND       PRES   REMARKS
TRI CITIES     FAIR      90  65  43 S5        30.02F HX  92
ELIZABETHTON   FAIR      90  70  51 CALM      30.03S HX  95
$$

TNZ012-013-036-069-073-074-220000-
CENTRAL EAST TENNESSEE

CITY           SKY/WX    TMP DP  RH WIND       PRES   REMARKS
KNOXVILLE      PTSUNNY   93  66  40 N6        29.98S HX  96
OAK RIDGE      FAIR      93  69  45 CALM      30.00F HX  98
GATLINBURG     SUNNY     93  64  38 NE6       29.98F HX  95
MORRISTOWN     SUNNY     90  70  51 N8        30.00F HX  95
JACKSBORO      MOSUNNY   91  75  59 CALM      30.04S HX 102
$$

TNZ083-085-099-220000-
SOUTHEAST TENNESSEE

CITY           SKY/WX    TMP DP  RH WIND       PRES   REMARKS
CHATTANOOGA    FAIR      95  63  34 N8        29.98S HX  96
DAYTON         CLEAR     93  72  49 CALM      29.97F HX 100
$$

SKY/WX REPORTED AS FAIR MEANS FEW OR NO CLOUDS BELOW
12 THOUSAND FEET.





USA.gov is the U.S. government's official web portal to all federal, state and local government web resources and services.